GEFSCGP_850_meantemp_132.txt.gz
Temperature
20 21 21 22 22 23 23 23 23 23 23 23 24 24 25 24 23 24 23 23 23 22 22 21 20 20 20 19 19 18 18 18 17 17 16 16 16 15 15 14 14 14 14 13
21 21 22 22 22 22 23 23 23 23 23 23 24 24 25 24 24 23 24 23 23 22 22 21 20 20 20 19 19 18 18 18 17 17 16 16 16 15 15 14 14 14 14 13
21 22 22 22 22 22 22 23 23 23 23 23 24 24 25 25 24 23 23 23 23 22 22 21 20 20 20 19 19 19 18 18 18 17 16 16 16 15 15 14 14 14 14 13
21 22 22 22 22 23 22 23 23 23 23 24 24 24 25 25 24 24 23 23 23 22 21 21 20 20 20 19 19 19 18 18 18 17 17 16 16 15 15 14 14 14 14 13
21 22 22 22 22 22 22 22 23 23 24 24 24 25 25 25 24 24 24 23 22 22 21 21 20 20 20 19 19 19 18 18 18 17 17 16 16 15 15 14 14 14 14 13
21 22 22 22 22 22 22 23 23 23 24 24 24 25 24 25 24 24 24 23 22 22 21 21 20 20 19 19 19 19 19 18 18 17 17 16 16 15 15 14 14 14 14 13
21 21 22 22 22 22 23 23 23 23 23 24 24 24 24 24 24 24 24 23 22 21 21 21 20 20 20 20 19 19 19 18 18 17 17 16 16 15 15 14 14 14 14 14
22 21 22 22 23 23 23 24 24 23 24 24 24 24 24 24 23 22 22 22 21 21 21 20 20 20 20 20 19 19 19 18 18 17 17 16 16 15 15 15 14 14 14 14
23 23 23 23 23 24 24 24 25 25 25 24 24 24 24 23 23 23 22 22 21 21 20 20 20 20 20 20 20 19 19 18 18 17 17 16 16 15 15 15 14 14 14 14
24 23 23 23 23 23 24 24 24 25 24 23 24 24 24 23 23 23 22 22 21 20 20 20 20 20 20 20 20 19 19 18 18 17 17 16 16 15 15 15 15 14 14 14
25 24 23 23 23 24 23 24 24 25 25 24 23 24 24 23 23 23 22 21 20 20 19 19 19 19 19 19 19 19 19 18 18 17 17 16 16 16 15 15 15 14 14 14
24 25 24 24 24 24 24 25 25 25 24 24 24 23 23 22 22 22 21 20 20 19 19 19 19 19 19 19 19 19 18 18 18 17 17 17 16 16 15 15 15 14 14 14
24 25 24 24 24 24 24 23 24 25 25 25 24 23 22 22 22 21 20 20 19 19 18 18 19 19 19 19 19 19 18 18 18 17 17 17 16 16 15 15 15 15 14 14
22 25 25 24 24 24 24 23 23 25 25 24 24 24 23 22 22 21 20 19 19 18 18 18 18 18 18 18 18 18 18 18 18 17 17 17 16 16 16 15 15 15 14 14
24 25 24 24 24 24 24 23 23 24 25 25 24 23 23 22 21 20 19 19 18 18 17 17 17 18 18 18 18 18 18 18 17 17 17 16 16 16 16 15 15 15 15 14
24 24 24 23 23 23 23 23 23 23 23 23 23 23 22 21 21 20 19 19 18 18 17 17 17 17 17 17 18 18 18 17 17 17 16 16 16 16 16 15 15 15 15 15
23 24 24 24 23 23 23 23 23 23 23 23 23 23 22 21 20 20 19 18 18 17 17 17 17 17 17 17 17 17 17 17 17 16 16 16 16 16 16 15 15 15 15 15
23 24 24 24 23 22 23 22 22 22 22 22 22 21 21 20 19 18 18 18 17 17 16 16 16 16 17 17 17 17 17 16 16 16 16 16 16 16 15 15 15 15 15 14
21 22 23 23 23 23 22 21 21 22 21 21 21 21 20 19 19 19 17 16 16 16 16 16 16 16 16 16 16 16 16 16 16 16 15 15 15 15 15 15 15 15 14 14
20 21 23 22 22 22 22 21 20 22 21 20 20 20 19 20 21 20 16 16 16 16 16 16 16 16 16 16 16 16 16 15 15 15 15 15 15 15 15 15 14 14 14 14
20 21 21 22 22 23 20 19 20 21 22 19 19 19 19 19 20 17 16 15 15 15 15 16 15 15 15 15 15 15 15 15 15 15 14 14 14 14 14 14 14 14 14 13
22 21 21 22 22 21 18 19 21 21 19 18 18 18 17 17 16 15 15 15 15 15 15 15 15 15 15 15 15 14 14 14 14 14 14 14 14 14 14 14 14 13 13 13
20 21 21 21 20 18 17 18 17 17 17 17 17 16 16 15 15 15 14 14 14 15 15 15 14 14 14 14 14 14 14 14 14 14 14 14 14 13 13 13 13 13 13 13
18 17 18 19 18 17 16 15 15 16 16 15 15 15 15 15 14 14 14 14 14 14 14 14 14 14 13 13 13 13 13 13 13 13 13 13 13 13 13 13 13 12 12 12
17 17 18 19 17 16 15 15 15 14 14 14 14 14 14 14 14 14 14 13 13 13 13 13 13 13 13 13 13 12 12 12 12 12 12 12 12 12 12 12 12 12 12 12
17 17 18 19 17 17 16 14 14 14 14 13 13 13 13 13 13 13 13 13 13 12 12 12 12 12 12 12 12 12 12 12 12 12 12 11 11 11 11 11 12 12 12 12

GEFSCGP_850_meantemp_138.txt.gz
Temperature
22 21 21 22 23 23 24 23 23 24 25 25 24 24 25 25 25 25 25 25 24 24 23 23 22 22 22 21 21 20 19 19 18 18 17 17 17 17 16 16 15 15 15 15
21 21 23 24 23 24 24 23 23 24 25 25 24 24 24 25 25 25 25 24 24 24 23 22 22 22 21 21 20 20 19 19 18 18 17 17 17 16 16 16 15 15 15 15
21 22 24 24 23 23 23 23 24 24 25 25 25 24 24 25 25 25 25 24 24 23 23 22 22 21 21 21 20 20 19 19 18 18 17 17 17 16 16 16 16 15 15 15
22 23 24 24 24 24 23 24 25 25 24 23 24 22 23 24 24 25 24 24 23 23 23 22 22 21 21 21 20 20 19 19 18 18 18 17 17 16 16 16 16 15 15 15
22 24 24 23 24 24 24 25 25 25 24 23 23 22 23 24 24 24 24 24 24 23 23 22 21 21 21 20 20 20 19 19 19 18 18 17 17 16 16 16 16 15 15 15
23 25 25 24 25 25 25 25 25 25 23 22 23 22 22 23 24 24 24 24 23 23 22 22 21 21 20 20 20 20 19 19 19 18 18 17 17 17 16 16 16 16 15 15
23 24 25 25 24 25 25 24 22 22 22 22 24 23 22 24 25 25 25 24 23 23 22 21 21 20 20 20 20 19 19 19 18 18 18 17 17 17 16 16 16 16 15 15
22 22 24 25 24 24 24 24 22 21 21 23 25 23 23 25 25 25 25 24 23 23 22 21 21 20 20 20 19 19 19 19 18 18 18 17 17 17 16 16 16 16 15 15
23 23 25 25 25 25 24 23 23 22 22 23 24 24 24 25 25 24 24 23 23 22 22 21 21 20 20 19 19 19 19 18 18 18 18 17 17 17 17 16 16 16 16 15
24 23 25 25 25 25 25 24 23 22 22 22 23 23 23 23 23 24 24 23 22 22 21 21 20 20 20 19 19 19 19 18 18 18 18 18 17 17 17 16 16 16 16 15
25 24 24 25 25 25 25 25 24 24 24 23 23 23 25 24 24 23 23 23 22 21 21 20 20 20 19 19 19 19 18 18 18 18 18 17 17 17 17 16 16 16 16 16
25 25 24 25 26 27 27 26 26 24 25 25 23 23 26 24 24 23 23 22 21 20 20 20 19 19 19 19 19 18 18 18 18 18 17 17 17 17 17 16 16 16 16 16
25 24 23 24 25 26 26 26 26 25 25 25 23 22 25 24 24 23 22 21 21 20 19 19 19 19 19 18 18 18 18 18 17 17 17 17 17 17 16 16 16 16 16 16
24 25 24 23 25 26 26 26 26 25 25 25 24 23 24 23 23 22 22 21 20 20 19 19 18 18 18 18 18 18 17 17 17 17 17 17 16 16 16 16 16 16 16 15
26 25 25 26 26 27 26 26 26 26 26 25 25 24 23 23 23 22 22 21 20 20 19 19 18 18 18 18 18 17 17 17 17 17 16 16 16 16 16 16 16 15 15 15
26 26 26 26 26 26 26 26 26 26 26 25 25 24 25 24 23 22 21 21 20 19 19 19 18 18 18 18 17 17 17 17 17 16 16 16 16 16 16 15 15 15 15 15
26 26 25 25 26 26 25 26 26 26 26 26 24 24 24 23 23 22 21 20 20 19 19 18 18 18 18 17 17 17 17 17 17 16 16 16 16 15 15 15 15 15 15 15
26 26 25 25 25 24 25 27 27 26 26 26 25 24 24 23 22 21 21 20 19 19 18 18 18 18 17 17 17 17 17 17 16 16 16 15 15 15 15 15 15 15 14 14
26 25 24 25 24 24 25 25 26 25 24 25 24 24 23 22 22 21 20 20 19 18 18 17 17 17 17 17 17 17 16 16 16 16 15 15 15 15 15 14 14 14 14 14
25 25 24 24 24 23 24 25 26 25 23 24 24 23 22 22 20 20 20 19 18 18 17 17 17 17 17 16 16 16 16 16 15 15 15 15 14 14 14 14 14 14 14 14
23 23 23 23 23 23 23 24 25 23 23 24 23 23 22 21 21 20 19 18 17 17 17 16 16 16 16 16 16 15 15 15 15 14 14 14 14 14 14 14 14 13 13 13
24 23 23 23 23 22 23 23 23 23 23 23 22 21 21 20 19 19 18 17 17 16 16 16 16 15 15 15 15 15 15 14 14 14 14 14 13 13 13 13 13 13 13 12
24 24 23 23 21 22 22 22 22 22 22 21 21 20 19 19 18 17 17 16 16 16 15 15 15 15 15 15 14 14 14 14 14 14 13 13 13 13 13 13 13 12 12 12
24 24 23 22 21 21 21 21 21 21 20 20 20 19 18 18 17 17 16 16 16 15 15 15 14 14 14 14 14 14 14 13 13 13 13 13 13 12 12 12 12 12 12 12
22 22 22 22 21 20 20 20 20 19 19 19 19 18 18 17 17 16 16 15 15 15 15 14 14 14 14 14 13 13 13 13 13 12 12 12 12 12 12 12 11 11 11 11
22 21 21 21 21 20 19 19 19 18 18 18 17 17 17 16 16 16 15 15 15 14 14 14 14 13 13 13 13 13 13 12 12 12 12 12 11 11 11 11 11 11 11 11

GEFSCGP_850_meantemp_144.txt.gz
Temperature
19 17 17 17 18 18 19 19 19 19 20 20 19 19 19 20 20 20 20 20 21 21 21 21 21 20 20 20 20 19 19 19 18 18 18 17 17 16 16 16 16 16 15 15
17 17 18 19 19 20 19 18 18 19 20 20 19 19 19 19 19 20 20 20 21 21 21 21 21 20 20 20 20 19 19 19 18 18 18 17 17 16 16 16 16 15 15 15
17 18 20 20 19 19 19 19 19 19 19 19 19 18 18 19 19 20 20 21 21 21 21 21 20 20 20 20 20 19 19 19 18 18 18 17 17 17 16 16 16 15 15 15
18 19 20 19 19 19 19 20 20 19 18 17 18 17 18 18 18 19 19 20 20 20 21 21 20 20 20 20 20 19 19 19 18 18 18 17 17 17 16 16 16 15 15 15
18 20 20 20 20 20 19 20 20 19 17 17 17 17 17 18 18 18 18 19 20 20 20 20 20 20 20 20 20 19 19 19 18 18 18 17 17 17 16 16 16 16 15 15
19 21 20 20 21 21 20 19 19 17 17 17 18 17 17 17 18 18 18 19 20 20 20 20 20 20 20 20 19 19 19 19 18 18 18 17 17 17 17 16 16 16 15 15
20 20 21 21 21 20 19 17 17 17 16 17 18 18 17 18 19 19 19 19 20 20 20 20 20 20 20 19 19 19 19 19 18 18 18 17 17 17 17 16 16 16 16 15
18 19 20 21 20 19 19 18 17 17 17 17 18 18 18 19 19 20 20 20 20 20 20 20 20 20 20 19 19 19 19 18 18 18 18 17 17 17 17 16 16 16 16 15
18 19 21 22 21 20 18 17 17 17 17 17 17 18 19 19 18 18 19 19 19 19 20 20 20 20 19 19 19 19 19 18 18 18 18 17 17 17 17 16 16 16 16 15
18 19 20 21 21 20 18 18 16 17 17 17 18 18 17 18 18 18 18 18 19 19 19 19 19 19 19 19 19 19 18 18 18 18 17 17 17 17 17 16 16 16 16 15
19 19 20 21 20 20 19 18 17 16 17 17 17 18 19 19 18 18 18 18 19 19 19 19 19 19 19 19 19 18 18 18 18 17 17 17 17 17 16 16 16 16 16 15
19 17 18 20 21 21 20 20 18 17 17 16 17 18 20 19 18 18 18 18 19 19 19 19 19 19 19 19 18 18 18 18 18 17 17 17 17 16 16 16 16 16 16 15
19 18 18 19 20 21 21 21 19 17 16 16 16 18 18 18 18 18 18 18 18 18 19 18 18 18 18 18 18 18 18 17 17 17 17 17 17 16 16 16 16 16 15 15
19 18 18 19 19 20 21 21 20 18 17 17 17 18 18 17 17 17 18 18 18 18 18 18 18 18 18 18 18 17 17 17 17 17 17 16 16 16 16 16 16 15 15 15
19 19 20 20 21 21 21 21 21 19 18 18 18 18 18 18 17 17 18 18 17 17 18 18 18 18 18 18 17 17 17 17 17 16 16 16 16 16 15 15 15 15 15 15
18 20 20 21 21 21 21 21 21 20 20 19 19 18 18 18 18 17 17 17 17 17 17 17 17 17 17 17 17 17 17 17 16 16 16 16 16 15 15 15 15 15 15 14
18 19 19 19 20 21 20 21 21 20 20 20 19 18 17 17 17 17 17 17 17 17 17 17 17 17 17 17 17 17 17 16 16 16 16 15 15 15 15 15 15 14 14 14
18 18 17 18 20 20 20 20 21 20 20 19 19 18 18 18 18 18 18 18 18 18 18 17 17 17 17 17 17 17 16 16 16 16 15 15 15 15 14 14 14 14 14 14
18 18 17 17 18 19 20 21 20 20 19 19 18 18 18 18 17 17 18 19 18 18 18 18 17 17 17 17 16 16 16 16 15 15 15 15 14 14 14 14 14 13 13 13
17 17 16 16 18 19 20 20 21 20 18 19 18 17 17 17 15 15 18 18 18 18 18 17 17 17 16 16 16 16 16 15 15 15 14 14 14 14 14 13 13 13 13 13
18 17 16 16 17 18 19 20 21 19 18 19 19 18 18 17 18 18 18 18 18 18 17 17 17 16 16 16 16 15 15 15 14 14 14 14 14 13 13 13 13 12 12 12
17 16 16 15 17 17 19 19 19 18 19 20 19 19 19 19 18 18 18 18 18 17 17 17 16 16 15 15 15 15 15 14 14 14 14 13 13 13 13 12 12 12 12 12
15 16 15 15 16 17 19 20 20 21 20 20 20 19 19 19 18 18 18 17 17 17 17 16 16 15 15 15 15 14 14 14 14 13 13 13 13 12 12 12 12 12 11 11
16 15 15 15 16 17 18 20 20 21 21 20 20 19 19 18 18 18 17 17 17 16 16 16 15 15 15 14 14 14 14 13 13 13 13 12 12 12 12 12 11 11 11 10
16 15 14 15 16 17 18 19 19 20 20 19 19 19 19 18 18 17 17 16 16 16 16 15 15 15 14 14 14 13 13 13 13 13 12 12 12 12 11 11 11 11 10 10
14 15 15 15 16 15 17 18 19 19 19 19 18 18 18 18 17 17 16 16 16 15 15 15 14 14 14 13 13 13 13 12 12 12 12 12 11 11 11 11 11 10 10 10

GEFSCGP_850_meantemp_150.txt.gz
Temperature
17 16 15 16 17 17 17 17 17 17 18 17 17 17 17 17 18 18 18 19 19 19 20 20 20 19 19 19 18 18 18 18 17 17 17 17 16 16 16 15 15 15 15 15
16 16 17 17 17 18 17 17 17 17 18 18 17 17 17 17 17 18 18 18 19 19 19 19 19 19 19 19 18 18 18 18 17 17 17 17 16 16 16 15 15 15 15 15
16 17 18 18 18 17 17 17 17 17 17 17 17 17 17 17 17 18 18 19 19 19 19 19 19 19 19 19 18 18 18 18 17 17 17 17 16 16 16 16 15 15 15 15
17 18 18 18 18 18 17 18 18 18 17 16 17 16 17 16 16 17 17 18 19 19 19 19 19 19 19 19 19 18 18 18 17 17 17 17 17 16 16 16 15 15 15 15
17 18 18 18 18 18 17 18 18 17 16 16 16 16 16 16 17 16 17 17 18 19 19 19 19 19 19 19 19 18 18 18 17 17 17 17 17 16 16 16 15 15 15 15
17 18 18 18 18 18 17 17 17 16 15 16 16 16 16 15 16 17 17 17 18 19 19 19 19 19 19 19 18 18 18 18 18 17 17 17 17 16 16 16 16 15 15 15
18 18 18 18 18 17 17 16 16 16 16 16 16 16 16 17 17 17 17 17 18 19 19 19 19 19 19 19 18 18 18 18 18 17 17 17 17 16 16 16 16 16 15 15
17 17 18 18 18 17 17 16 16 16 16 16 16 16 17 17 17 18 18 18 18 18 19 19 19 19 19 19 18 18 18 18 18 17 17 17 17 16 16 16 16 16 15 15
17 17 18 18 18 17 16 16 16 15 16 16 16 16 17 16 16 16 17 17 18 18 18 19 19 19 19 18 18 18 18 18 17 17 17 17 17 16 16 16 16 15 15 15
17 17 18 18 18 17 17 15 15 15 16 16 17 17 16 17 16 16 16 17 18 18 18 18 18 19 18 18 18 18 18 17 17 17 17 17 16 16 16 16 16 15 15 15
17 17 18 18 18 17 16 16 15 15 16 16 16 17 17 17 16 16 16 17 18 18 18 18 18 18 18 18 18 18 17 17 17 17 17 16 16 16 16 16 16 15 15 15
16 16 17 18 18 18 18 17 16 16 16 15 15 16 18 17 17 17 17 17 18 19 19 18 18 18 18 18 18 17 17 17 17 17 16 16 16 16 16 16 15 15 15 15
16 16 17 18 18 18 18 17 16 15 14 14 16 17 17 16 16 17 17 17 18 18 18 18 18 18 18 18 17 17 17 17 17 16 16 16 16 16 16 15 15 15 15 15
17 16 17 18 18 18 18 18 16 16 15 15 16 17 17 16 16 16 16 17 18 18 18 18 18 18 18 17 17 17 17 17 16 16 16 16 16 15 15 15 15 15 15 14
17 17 17 18 18 18 19 19 17 17 17 16 17 17 17 17 16 16 17 16 17 17 17 18 18 18 17 17 17 17 17 16 16 16 16 15 15 15 15 15 15 14 14 14
16 17 18 19 19 19 19 18 18 18 17 17 17 17 17 17 17 16 16 16 16 17 17 17 18 18 17 17 17 17 17 16 16 16 16 15 15 15 14 14 14 14 14 14
15 16 17 17 18 19 18 18 18 18 17 17 17 18 16 15 15 16 16 17 17 18 18 18 18 18 18 17 17 17 16 16 16 16 15 15 15 15 14 14 14 14 13 13
15 15 15 16 18 18 18 19 18 18 18 17 17 17 16 16 17 17 18 18 18 18 18 18 18 18 17 17 17 16 16 16 16 15 15 15 14 14 14 14 14 13 13 13
15 15 14 15 17 17 18 19 18 18 18 17 16 16 16 16 16 16 18 18 19 19 18 18 18 18 17 17 17 16 16 16 15 15 15 14 14 14 14 13 13 13 13 12
14 14 14 14 17 17 19 19 19 19 18 17 16 16 15 16 15 16 18 18 18 18 18 18 17 17 17 16 16 16 16 15 15 15 14 14 14 14 13 13 13 12 12 12
15 14 14 14 16 16 17 18 19 19 19 19 18 17 16 16 18 19 19 19 18 18 18 17 17 17 17 16 16 16 15 15 15 14 14 14 14 13 13 13 12 12 12 12
14 14 14 13 16 17 17 17 18 18 19 19 19 18 18 18 19 19 19 19 18 18 17 17 17 16 16 16 16 16 15 15 14 14 14 14 13 13 13 12 12 12 11 11
13 14 13 14 16 16 16 17 19 19 19 19 19 19 19 18 18 19 18 18 18 17 17 17 16 16 16 15 15 15 15 14 14 14 13 13 13 13 12 12 12 11 11 11
13 12 12 13 14 15 16 17 18 19 20 20 20 19 19 19 19 18 18 18 17 17 17 16 16 16 15 15 15 15 14 14 14 13 13 13 12 12 12 12 11 11 11 11
13 12 12 13 13 15 17 17 18 19 19 19 19 19 19 19 18 18 18 17 17 17 16 16 16 15 15 15 14 14 14 13 13 13 13 12 12 12 12 11 11 11 10 10
11 12 13 14 15 14 16 17 18 18 18 18 18 18 18 18 18 18 17 17 17 16 16 15 15 15 15 14 14 14 13 13 13 12 12 12 12 11 11 11 10 10 10 10

GEFSCGP_850_meantemp_156.txt.gz
Temperature
20 21 21 21 21 22 22 22 21 21 21 21 21 20 21 21 21 21 20 20 20 20 19 19 18 18 18 18 18 17 17 17 17 17 16 16 16 15 15 15 15 15 15 15
21 20 21 21 21 21 21 21 21 21 21 21 21 21 21 21 21 20 21 21 20 20 19 19 18 18 18 18 17 17 17 17 17 17 16 16 16 16 15 15 15 15 15 15
21 21 21 21 21 21 21 21 21 21 21 21 21 21 21 21 21 20 20 20 20 20 20 19 19 18 18 18 18 17 17 17 17 17 16 16 16 16 15 15 15 15 15 15
21 21 21 21 21 21 21 21 21 21 21 21 21 21 22 22 21 21 20 20 20 20 19 19 19 18 18 18 18 17 17 17 17 17 17 16 16 16 16 15 15 15 15 15
21 21 21 21 21 21 21 21 21 21 21 21 21 22 22 22 22 22 21 21 20 20 19 19 18 18 18 18 18 17 17 17 17 17 17 17 16 16 16 16 15 15 15 15
21 21 21 21 21 21 21 21 21 21 21 21 22 22 22 23 23 23 22 21 20 20 19 19 18 18 18 18 18 17 17 17 17 17 17 17 16 16 16 16 15 15 15 15
21 21 21 21 21 21 21 21 20 20 21 21 22 22 22 23 23 23 23 21 20 20 19 18 18 18 18 18 18 17 17 17 17 17 17 17 16 16 16 16 16 15 15 15
21 21 21 22 22 21 21 21 21 21 21 22 21 22 23 23 22 22 22 21 20 20 19 19 18 18 18 18 18 17 17 17 17 17 17 17 16 16 16 16 16 15 15 15
21 21 22 22 22 22 21 21 22 22 22 22 22 23 23 22 22 21 21 21 20 20 19 18 18 18 18 18 17 17 17 17 17 17 17 16 16 16 16 16 16 15 15 15
22 21 21 21 21 21 22 22 22 21 21 22 22 23 23 22 22 22 22 21 20 19 19 18 18 18 18 17 17 17 17 17 17 17 17 16 16 16 16 16 15 15 15 15
22 22 21 21 21 22 21 21 22 22 22 22 22 23 24 23 23 22 22 21 20 19 19 18 18 18 18 17 17 17 17 17 17 16 16 16 16 16 16 16 16 15 15 15
22 22 22 22 22 22 22 23 22 22 22 22 23 23 23 23 23 22 22 21 20 19 18 18 18 17 17 17 17 17 17 17 17 16 16 16 16 16 16 15 15 15 15 15
21 22 21 21 21 21 22 22 22 23 22 22 22 23 22 22 22 21 21 20 19 18 18 18 17 17 17 17 17 17 17 17 16 16 16 16 16 16 15 15 15 15 15 14
21 22 22 22 22 22 22 22 22 22 22 23 23 23 23 22 22 21 20 20 19 18 18 17 17 17 17 17 17 17 17 17 16 16 16 16 16 16 15 15 15 15 14 14
22 22 23 23 23 22 22 22 22 22 23 23 23 23 23 23 22 21 20 19 18 18 18 17 17 17 17 17 17 17 17 17 16 16 16 16 16 15 15 15 15 14 14 14
22 22 22 22 22 22 22 22 22 22 22 23 23 23 24 23 22 21 20 19 18 18 18 17 17 17 17 17 17 17 17 16 16 16 16 16 15 15 15 15 14 14 14 14
22 22 22 23 23 22 22 23 23 23 23 23 23 24 23 23 22 21 20 19 19 18 18 18 17 17 17 17 17 17 17 16 16 16 16 15 15 15 14 14 14 14 14 13
22 22 22 22 22 21 24 24 23 23 23 24 24 24 23 23 21 21 20 20 19 18 18 18 17 17 17 17 17 17 16 16 16 16 15 15 15 15 14 14 14 13 13 13
22 21 21 22 22 22 23 23 23 23 23 24 23 23 22 21 20 20 19 19 19 19 18 18 18 17 17 17 17 16 16 16 16 15 15 15 15 14 14 14 13 13 13 13
19 21 21 21 21 21 23 23 22 23 23 23 23 22 21 21 22 22 20 19 19 18 18 18 17 17 17 17 17 16 16 16 15 15 15 15 14 14 14 14 13 13 13 12
20 20 20 21 21 22 23 21 21 22 24 22 22 22 21 22 23 21 19 19 18 18 18 18 17 17 17 17 16 16 16 15 15 15 15 14 14 14 14 13 13 13 12 12
21 21 21 21 21 22 21 21 22 23 22 21 21 21 21 21 20 19 19 18 18 18 18 17 17 17 17 16 16 16 16 16 15 15 15 14 14 14 13 13 13 12 12 11
20 21 21 22 22 20 19 20 20 19 20 20 20 20 19 19 18 18 18 18 18 18 17 17 17 16 16 16 16 16 16 15 15 14 14 14 13 13 13 12 12 12 11 11
20 18 19 20 21 20 18 18 18 18 18 18 18 18 18 18 18 17 17 17 17 17 17 17 16 16 16 16 15 15 15 15 14 14 14 13 13 12 12 12 12 11 11 11
19 18 19 20 20 19 18 17 17 17 17 17 18 18 18 18 17 17 17 17 16 16 16 16 16 16 16 15 15 14 14 14 14 13 13 13 12 12 12 11 11 11 11 11
18 18 19 20 20 19 19 17 16 16 17 17 17 17 17 17 17 17 16 16 16 16 16 16 16 15 15 15 15 14 14 13 13 13 12 12 12 11 11 11 11 11 10 10

GEFSCGP_850_meantemp_162.txt.gz
Temperature
22 22 21 21 21 22 22 22 22 22 23 23 22 21 21 21 21 21 21 22 22 21 21 21 20 20 20 19 19 18 18 18 18 17 17 17 17 17 16 16 16 16 16 16
22 21 23 23 23 22 22 22 22 22 23 23 22 21 21 21 21 22 22 22 22 22 21 20 20 20 19 19 19 18 18 18 18 17 17 17 17 17 16 16 16 16 16 16
22 22 24 23 23 22 22 22 22 22 22 23 22 21 21 21 22 22 22 22 22 22 21 20 20 19 19 19 19 18 18 18 18 17 17 17 17 17 16 16 16 16 16 16
23 24 23 23 23 23 22 23 23 22 22 21 22 20 21 21 21 22 22 22 22 22 21 20 20 19 19 19 19 19 18 18 18 17 17 17 17 17 16 16 16 16 16 16
23 23 23 23 23 23 23 24 23 23 22 21 22 21 21 22 21 22 22 22 22 22 21 20 20 19 19 19 19 18 18 18 18 17 17 17 17 17 16 16 16 16 16 16
24 24 24 24 24 24 24 23 23 23 22 21 22 22 21 22 22 22 22 22 22 21 21 21 20 19 19 18 18 18 18 18 18 17 17 17 17 17 16 16 16 16 16 16
23 24 24 24 23 24 23 21 20 20 20 21 23 22 22 24 24 23 23 22 22 21 21 21 20 19 19 18 18 18 18 18 17 17 17 17 17 17 17 16 16 16 16 16
22 22 24 24 24 23 22 21 20 20 20 22 23 23 23 25 25 24 23 22 22 22 21 21 20 19 19 18 18 18 18 17 17 17 17 17 17 17 17 17 17 16 16 16
22 22 24 25 25 24 22 22 22 21 22 22 23 23 24 24 24 24 23 22 22 22 21 21 20 19 19 18 18 18 18 17 17 17 17 17 17 17 17 17 17 16 16 16
23 22 23 24 24 24 24 23 22 21 21 21 22 23 22 23 23 23 23 22 22 21 21 20 20 19 19 18 18 18 18 18 17 17 17 17 17 17 17 16 16 16 16 16
24 22 22 23 23 23 24 23 23 22 22 20 20 22 24 24 24 23 23 23 22 21 21 20 20 19 19 18 18 18 17 17 17 17 17 17 17 17 16 16 16 16 16 16
24 23 22 23 25 25 24 24 23 22 22 22 21 22 25 25 24 24 23 23 22 21 21 20 19 19 18 18 18 18 17 17 17 17 17 17 16 16 16 16 16 16 15 15
24 22 21 21 22 24 24 24 24 23 23 22 22 22 24 25 24 24 23 22 22 21 21 20 19 19 18 18 18 18 17 17 17 17 17 17 16 16 16 16 16 15 15 15
23 23 21 20 21 23 23 24 24 23 22 22 23 23 24 24 24 23 23 22 21 21 20 20 19 19 18 18 18 17 17 17 17 17 17 16 16 16 16 16 16 15 15 15
24 22 22 23 23 24 24 24 24 24 23 23 23 23 24 24 24 24 23 22 21 21 20 19 19 18 18 18 17 17 17 17 17 17 17 16 16 16 16 16 15 15 15 15
24 23 23 23 24 24 24 24 24 24 24 24 24 24 25 25 24 23 23 22 21 21 20 19 19 18 18 18 17 17 17 17 17 17 16 16 16 16 16 16 15 15 15 15
23 23 22 22 23 24 23 24 25 24 25 24 23 24 25 24 24 23 23 22 21 21 20 19 19 18 18 18 18 17 17 17 17 16 16 16 16 16 16 15 15 15 14 14
23 23 22 22 22 21 23 25 26 25 25 25 25 24 24 24 23 23 23 22 21 21 20 20 19 19 18 18 18 17 17 17 17 16 16 16 16 16 15 15 15 14 14 14
24 23 22 22 21 22 24 25 25 24 24 25 25 24 24 24 23 23 22 22 21 21 20 20 19 19 18 18 18 17 17 16 16 16 16 16 16 15 15 15 15 14 14 14
24 23 22 21 21 21 23 24 25 24 23 25 25 24 24 23 22 22 22 22 21 20 20 19 19 19 18 18 18 17 17 16 16 16 16 16 16 15 15 15 14 14 14 13
22 22 21 21 21 21 23 24 24 23 22 24 24 24 23 23 22 22 21 21 21 20 20 19 19 18 18 18 17 17 17 16 16 16 16 16 15 15 15 15 14 14 13 13
22 21 21 21 21 21 22 23 22 22 23 23 23 23 22 22 22 21 21 20 20 20 19 19 19 18 18 18 17 17 16 16 16 16 16 15 15 15 15 14 14 13 13 13
22 22 21 21 21 21 22 22 21 21 22 22 22 22 22 22 21 21 20 20 20 19 19 18 18 18 17 17 17 17 16 16 16 15 15 15 14 14 14 14 14 13 13 13
23 23 22 22 21 21 21 21 21 21 21 21 21 21 21 21 20 20 19 19 19 19 18 18 18 17 17 17 16 16 16 16 15 15 15 14 14 14 13 13 13 13 13 12
21 22 22 21 21 21 21 20 20 20 20 20 20 20 20 20 20 20 19 19 18 18 17 17 17 17 16 16 16 16 16 15 15 14 14 14 14 13 13 13 13 13 13 12
21 21 20 20 20 21 20 19 19 19 19 19 19 19 19 19 19 19 18 18 17 17 17 17 17 16 16 16 16 15 15 15 14 14 14 13 13 13 13 12 12 12 12 12

GEFSCGP_850_meantemp_168.txt.gz
Temperature
19 17 17 17 18 18 18 18 18 18 19 19 18 18 18 18 18 18 19 19 19 19 19 19 19 19 18 18 18 18 18 17 17 17 17 16 16 16 16 16 16 16 16 16
17 17 18 19 19 19 19 18 18 18 19 19 18 17 18 18 18 19 19 19 19 19 19 19 19 19 19 18 18 18 18 17 17 17 17 16 16 16 16 16 16 16 16 16
18 18 20 20 19 19 19 18 18 18 19 19 18 18 17 18 18 19 19 19 19 19 19 19 19 19 19 18 18 18 18 17 17 17 17 16 16 16 16 16 16 16 16 16
18 20 20 20 19 19 18 20 19 19 18 17 18 16 17 17 17 18 18 19 19 19 19 19 19 19 19 18 18 18 18 17 17 17 17 16 16 16 16 16 16 16 15 15
19 20 20 19 20 20 19 20 20 19 18 17 17 17 16 16 17 17 18 19 19 19 19 19 19 19 19 19 18 18 18 17 17 17 17 17 16 16 16 16 16 16 15 15
20 21 20 20 20 21 20 19 19 17 16 16 17 17 16 16 17 18 18 19 19 19 19 19 19 19 19 18 18 18 18 17 17 17 17 17 16 16 16 16 16 16 16 15
19 20 21 21 20 20 18 16 16 16 16 16 17 17 17 17 18 18 18 19 19 19 19 19 19 19 19 18 18 18 17 17 17 17 17 17 17 16 16 16 16 16 16 16
18 18 20 20 19 18 18 17 16 16 16 16 17 17 18 19 19 20 19 19 19 19 19 19 19 19 19 18 18 18 18 17 17 17 17 17 17 16 16 16 16 16 16 16
18 18 20 21 20 19 18 17 16 16 17 16 17 17 18 19 18 18 19 19 19 19 19 19 19 19 19 18 18 18 18 17 17 17 17 17 17 16 16 16 16 16 16 15
18 18 19 20 20 20 18 17 16 16 16 16 17 18 17 18 18 18 18 18 19 19 19 19 19 19 19 18 18 18 18 17 17 17 17 17 16 16 16 16 16 16 16 15
19 18 19 19 19 19 18 18 17 15 15 16 16 17 19 18 18 18 18 18 19 19 19 19 19 19 19 18 18 18 18 17 17 17 17 17 16 16 16 16 16 16 16 15
18 16 17 18 19 20 19 19 17 16 16 15 16 17 19 18 18 18 18 19 19 19 19 19 19 19 18 18 18 18 18 17 17 17 17 16 16 16 16 16 16 16 15 15
19 17 16 17 18 19 19 19 18 16 15 15 16 17 19 18 18 19 19 19 19 19 19 19 18 18 18 18 18 18 17 17 17 17 17 16 16 16 16 16 16 16 15 15
18 16 16 17 17 18 19 20 19 17 16 16 17 18 18 18 18 18 19 19 19 19 19 18 18 18 18 18 18 18 17 17 17 17 16 16 16 16 16 16 16 15 15 15
18 17 18 18 19 19 19 20 20 19 18 17 18 18 18 18 18 19 19 19 18 18 18 18 18 18 18 18 18 18 17 17 17 17 16 16 16 16 16 16 15 15 15 15
17 17 18 18 19 19 19 20 20 20 19 19 18 18 19 19 19 19 19 18 18 18 18 18 18 18 18 18 18 18 17 17 17 17 16 16 16 16 16 15 15 15 15 15
16 17 17 17 18 19 18 19 20 19 20 19 18 18 18 18 18 19 19 19 18 18 18 18 18 19 18 18 18 18 17 17 17 16 16 16 16 16 16 15 15 15 15 15
16 16 15 16 18 18 19 19 20 19 19 19 19 18 18 19 19 19 19 19 19 19 19 19 19 19 18 18 18 17 17 17 17 16 16 16 16 16 15 15 15 15 15 14
16 16 15 15 16 17 19 20 20 19 19 19 18 18 18 19 19 18 19 19 19 19 19 19 19 19 18 18 18 17 17 17 16 16 16 16 16 16 15 15 15 15 14 14
16 15 15 15 17 17 18 19 20 19 18 18 18 18 18 18 16 17 19 19 19 19 19 19 19 18 18 18 18 17 17 17 16 16 16 16 15 15 15 15 15 14 14 14
16 15 15 15 16 16 17 18 19 18 18 19 19 18 18 17 18 19 19 19 19 19 19 19 19 18 18 18 17 17 17 17 17 16 16 15 15 15 15 15 14 14 14 14
16 15 15 15 16 17 18 18 18 17 19 19 19 19 19 19 19 19 19 19 19 19 19 19 18 18 18 18 17 17 17 17 16 16 16 15 15 15 15 14 14 14 13 13
15 15 15 15 16 17 18 18 19 19 19 19 19 19 19 19 19 19 19 19 19 19 18 18 18 18 18 17 17 17 17 16 16 16 15 15 15 15 14 14 14 13 13 13
15 15 14 15 15 16 18 18 19 19 19 19 19 19 19 19 19 19 19 18 18 18 18 18 18 18 17 17 17 17 17 16 16 16 15 15 15 15 14 14 14 13 13 13
15 15 14 14 15 16 17 18 18 18 19 19 19 19 19 19 18 18 18 18 18 18 18 18 18 18 17 17 17 16 16 16 16 15 15 15 14 14 14 14 13 13 13 13
14 15 14 14 15 15 17 17 18 18 18 18 18 18 18 18 18 18 18 18 18 18 17 17 17 17 17 17 16 16 16 16 15 15 15 15 14 14 14 13 13 13 12 12

GEFSCGP_850_meantemp_174.txt.gz
Temperature
18 16 16 16 17 17 17 17 16 17 17 17 17 16 16 17 17 17 17 17 18 18 18 18 18 18 17 17 17 17 17 16 16 16 16 16 16 16 16 16 15 15 15 15
16 16 17 17 17 17 17 17 16 17 18 18 17 17 16 16 16 17 17 17 18 18 18 18 18 18 18 17 17 17 17 16 16 16 16 16 16 15 15 15 15 15 15 15
17 17 18 18 17 17 17 17 17 17 17 17 17 16 16 16 17 17 17 18 18 18 18 18 18 18 18 17 17 17 17 16 16 16 16 16 16 15 15 15 15 15 15 15
17 18 18 18 18 17 17 18 17 17 16 15 17 15 16 16 16 16 17 17 18 18 18 18 18 18 18 18 17 17 17 16 16 16 16 16 16 15 15 15 15 15 15 15
17 18 18 18 18 18 17 18 17 17 16 15 16 16 15 15 15 15 16 17 18 18 18 18 18 18 18 18 17 17 17 16 16 16 16 16 16 15 15 15 15 15 15 15
17 18 18 18 18 18 17 17 16 15 15 15 16 15 15 15 15 16 16 17 18 18 18 18 18 18 18 18 17 17 17 17 16 16 16 16 16 15 15 15 15 15 15 15
17 18 18 18 18 17 17 15 15 15 14 15 15 15 15 16 16 16 17 17 18 18 18 18 18 18 18 18 17 17 17 17 16 16 16 16 16 16 15 15 15 15 15 15
16 16 18 18 18 17 16 16 15 15 15 15 15 15 16 17 17 18 18 18 18 18 18 18 18 18 18 18 17 17 17 17 16 16 16 16 16 16 15 15 15 15 15 15
16 17 18 18 18 17 16 15 15 15 15 15 15 15 16 17 16 17 17 17 17 18 18 18 18 18 18 18 18 17 17 17 16 16 16 16 16 16 15 15 15 15 15 15
17 17 18 18 18 17 16 15 14 15 15 15 16 16 16 17 16 16 16 16 17 18 18 18 18 18 18 18 17 17 17 17 17 16 16 16 16 16 15 15 15 15 15 15
17 17 17 17 17 17 16 16 14 14 14 15 15 16 17 17 16 16 16 17 17 18 18 18 18 18 18 17 17 17 17 17 17 16 16 16 16 16 15 15 15 15 15 15
16 15 16 17 17 18 17 16 15 15 15 14 14 15 17 17 16 16 17 17 18 18 18 18 18 18 17 17 17 17 17 17 17 16 16 16 16 16 16 15 15 15 15 15
16 15 16 16 17 17 17 16 16 14 14 13 14 16 17 16 16 17 17 18 18 18 18 18 18 17 17 17 17 17 17 17 17 16 16 16 16 16 16 15 15 15 15 15
16 15 16 17 17 17 17 17 16 15 14 14 15 16 17 16 16 16 17 18 18 18 18 18 17 17 17 17 17 17 17 17 17 16 16 16 16 16 16 15 15 15 15 15
16 16 16 16 17 17 17 17 16 16 15 15 16 16 17 16 16 17 17 17 17 17 17 17 17 17 17 17 17 17 17 17 16 16 16 16 16 15 15 15 15 15 15 15
15 16 16 17 17 17 17 17 17 17 16 16 16 16 16 17 17 16 17 17 17 17 17 17 17 18 18 17 17 17 17 16 16 16 16 16 15 15 15 15 15 15 15 14
14 15 15 16 16 17 17 17 17 17 16 16 16 17 16 15 15 16 16 17 17 17 18 18 18 18 18 18 17 17 17 16 16 16 16 16 15 15 15 15 15 15 15 14
14 14 13 14 16 17 17 17 17 17 17 16 16 16 16 16 16 17 17 17 18 18 18 18 18 18 18 18 17 17 17 16 16 16 16 16 15 15 15 15 15 15 14 14
14 14 13 14 15 16 17 17 17 17 17 16 16 16 16 16 16 16 17 18 18 18 19 19 19 18 18 17 17 17 17 16 16 16 16 16 15 15 15 15 15 15 14 14
13 13 13 13 15 16 17 17 17 17 17 17 16 15 15 16 15 15 17 18 18 18 18 18 18 18 18 17 17 17 17 16 16 16 16 16 16 15 15 15 15 14 14 14
14 13 13 13 15 15 16 16 17 17 17 17 17 16 16 15 16 17 17 18 18 18 18 18 18 18 17 17 17 17 16 16 16 16 16 16 15 15 15 15 14 14 14 13
14 13 13 12 14 15 16 16 16 16 17 17 17 17 17 17 17 17 17 17 17 18 18 18 17 17 17 17 17 16 16 16 16 15 15 15 15 15 14 14 14 14 13 13
13 13 13 13 14 15 16 16 17 18 17 18 18 17 17 17 17 17 17 17 17 17 17 17 17 17 17 16 16 16 16 16 15 15 15 15 15 14 14 14 14 13 13 13
12 12 12 12 13 15 16 17 17 18 18 18 18 18 18 17 17 17 17 17 17 17 17 17 17 17 16 16 16 16 16 16 15 15 15 14 14 14 14 14 13 13 13 13
13 12 12 13 13 15 16 17 17 17 18 18 18 18 18 17 17 17 17 17 17 17 17 16 16 16 16 16 16 16 15 15 15 15 15 14 14 14 14 13 13 13 13 13
11 12 13 13 14 14 16 17 17 17 17 17 17 17 17 17 17 17 17 17 16 16 16 16 16 16 16 16 16 15 15 15 15 14 14 14 14 14 13 13 13 13 12 12

GEFSCGP_850_meantemp_180.txt.gz
Temperature
21 22 21 22 22 22 22 22 21 21 21 21 21 21 21 20 20 20 20 20 19 19 18 18 17 17 17 17 17 16 16 16 16 16 16 15 15 15 15 15 15 15 15 15
22 21 22 22 21 21 22 21 21 21 21 21 21 21 21 20 20 20 20 20 20 19 18 18 17 17 17 17 17 16 16 16 16 16 15 15 15 15 15 15 15 15 15 15
22 22 21 21 21 21 21 22 21 21 21 21 21 21 21 21 20 20 20 20 20 19 19 18 18 17 17 17 17 17 16 16 16 16 15 15 15 15 15 15 15 15 15 15
21 21 21 21 21 21 21 22 21 21 21 21 21 21 22 22 21 21 20 20 19 19 19 18 18 18 17 17 17 17 16 16 16 16 15 15 15 15 15 15 15 15 15 15
21 21 21 21 21 21 21 21 21 21 21 21 22 21 22 22 21 21 21 20 19 19 19 18 18 18 17 17 17 17 16 16 16 16 16 15 15 15 15 15 15 15 15 15
21 21 21 21 21 21 21 21 21 21 22 21 22 22 22 22 22 22 22 20 20 19 18 18 18 17 17 17 17 17 17 16 16 16 16 15 15 15 15 15 15 15 15 15
21 21 21 21 21 21 21 21 21 21 21 21 22 22 22 23 23 23 22 21 20 19 19 18 18 17 17 17 17 17 17 16 16 16 16 15 15 15 15 15 15 15 15 15
21 21 21 21 21 21 21 22 21 20 21 22 21 21 23 23 22 22 21 20 20 19 19 18 18 18 17 17 17 17 17 16 16 16 16 15 15 15 15 15 15 15 15 15
21 21 21 21 21 22 21 21 21 21 21 21 22 22 23 22 22 22 21 20 20 19 19 18 18 17 17 17 17 17 17 16 16 16 16 15 15 15 15 15 15 15 15 15
22 21 21 21 21 21 21 21 21 21 20 21 22 22 22 22 22 22 21 21 20 19 19 18 18 17 17 17 17 17 17 16 16 16 16 16 15 15 15 15 15 15 15 15
22 22 21 21 21 21 21 21 21 21 21 21 21 22 23 23 22 22 22 21 20 19 18 18 18 17 17 17 17 17 17 16 16 16 16 16 15 15 15 15 15 15 15 15
22 22 21 21 22 21 22 22 21 21 21 21 21 22 23 23 22 22 21 20 19 19 18 18 17 17 17 17 17 16 16 16 16 16 16 15 15 15 15 15 15 15 15 15
21 21 21 21 21 21 21 21 21 22 22 21 21 22 23 22 22 21 21 20 19 18 18 17 17 17 17 17 17 16 16 16 16 16 16 15 15 15 15 15 15 15 15 14
21 22 21 21 21 21 21 21 21 21 21 22 22 22 23 22 22 21 20 20 19 18 17 17 17 17 17 17 16 16 16 16 16 16 16 15 15 15 15 15 15 15 14 14
21 21 22 22 22 21 21 21 21 21 22 22 22 22 23 22 22 21 20 19 18 18 17 17 16 16 16 16 16 16 16 16 16 16 15 15 15 15 15 15 15 15 15 14
21 21 21 21 21 21 21 22 22 21 22 22 22 22 23 22 21 20 20 19 18 17 17 17 16 16 16 17 16 16 16 16 16 16 15 15 15 15 15 15 15 15 14 14
21 21 21 21 21 21 21 22 22 22 22 22 22 22 22 22 21 20 19 18 18 17 17 17 17 17 17 17 17 16 16 16 16 16 16 15 15 15 15 15 15 15 14 14
21 21 21 21 21 20 22 22 22 21 22 22 22 22 21 21 20 19 18 18 18 17 17 17 17 17 17 17 17 16 16 16 16 16 15 15 15 15 15 15 14 14 14 14
21 20 20 20 20 20 21 21 21 21 21 22 22 21 20 20 19 19 18 17 17 17 17 17 17 16 16 16 16 16 16 16 16 16 15 15 15 15 15 15 14 14 14 14
19 20 20 20 20 20 21 21 20 21 21 21 21 21 20 20 21 20 17 17 17 17 17 16 16 16 16 16 16 16 16 16 16 16 15 15 15 15 15 15 14 14 14 14
19 19 19 20 20 21 21 20 20 21 21 20 20 20 20 20 20 18 17 16 16 16 16 16 16 16 16 16 16 16 16 16 16 15 15 15 15 15 15 14 14 14 14 14
20 20 19 20 19 20 20 20 21 21 20 19 19 19 19 18 17 16 16 16 16 16 16 16 16 16 16 16 16 16 15 15 15 15 15 15 15 14 14 14 14 14 14 13
19 20 20 20 20 19 18 19 19 19 19 19 18 18 17 17 16 16 16 16 16 16 16 16 16 16 16 16 16 15 15 15 15 15 14 14 14 14 14 14 14 13 13 13
19 18 19 19 19 19 18 18 17 17 18 17 17 17 17 16 16 16 15 15 15 15 16 16 15 15 15 15 15 15 15 15 15 14 14 14 14 14 13 13 13 13 13 13
18 18 19 19 19 18 17 17 17 17 17 17 16 16 16 16 16 15 15 15 15 15 15 15 15 15 15 15 15 15 15 14 14 14 14 13 13 13 13 13 13 13 13 12
18 18 19 19 19 19 18 17 17 17 16 16 16 16 15 15 15 15 15 15 15 15 15 15 15 14 14 14 14 14 14 14 14 14 13 13 13 13 13 12 12 12 12 12

GEFSCGP_850_meantemp_186.txt.gz
Temperature
24 23 22 23 23 23 23 23 22 23 24 23 22 22 22 22 22 21 21 20 20 20 20 19 19 19 18 18 18 18 17 17 17 17 17 17 16 16 16 16 16 16 16 16
23 23 24 24 24 23 23 22 22 23 24 23 22 22 22 22 22 22 21 21 21 20 20 19 19 19 18 18 18 18 17 17 17 17 16 16 16 16 16 16 16 16 16 16
23 24 25 24 24 23 23 22 22 22 23 23 22 21 22 22 22 22 22 21 21 21 20 19 19 19 18 18 18 18 17 17 17 17 17 16 16 16 16 16 16 16 16 16
24 24 24 24 23 23 22 23 23 23 22 22 22 20 22 22 22 22 22 21 21 21 20 20 19 19 18 18 18 18 17 17 17 17 17 16 16 16 16 16 16 16 16 15
23 24 24 23 23 24 23 24 24 23 22 22 23 22 22 23 22 22 22 22 21 21 20 20 19 19 19 18 18 18 17 17 17 17 17 16 16 16 16 16 16 16 16 15
24 24 24 24 24 24 24 24 23 23 22 21 23 22 21 22 22 22 22 22 21 21 21 20 20 19 19 18 18 18 17 17 17 17 17 16 16 16 16 16 16 16 15 15
23 24 24 24 23 24 23 22 21 21 20 21 24 23 22 24 24 24 23 22 22 21 21 20 20 19 19 18 18 17 17 17 17 17 16 16 16 16 16 16 16 16 16 15
22 22 24 24 24 23 23 22 21 20 21 22 24 23 23 25 24 24 23 22 22 21 21 20 20 19 19 18 18 17 17 17 17 17 17 16 16 16 16 16 16 16 16 15
22 22 24 24 24 24 23 23 23 22 22 22 22 23 23 24 24 24 23 22 21 21 21 20 20 19 19 18 18 17 17 17 17 17 17 16 16 16 16 16 16 16 16 16
24 22 23 24 24 24 24 24 23 21 20 21 21 22 21 22 23 23 23 22 21 21 21 20 19 19 18 18 18 17 17 17 17 17 16 16 16 16 16 16 16 16 16 16
24 22 23 23 23 23 23 23 23 22 21 20 20 21 23 23 23 23 23 22 21 21 21 20 19 19 18 18 17 17 17 17 17 17 16 16 16 16 16 16 16 16 16 16
23 23 22 23 24 24 24 24 23 21 21 22 21 21 24 24 24 23 23 22 21 21 20 20 19 19 18 18 17 17 17 17 17 16 16 16 16 16 16 16 16 16 16 16
23 22 21 21 22 23 23 24 24 23 22 21 21 21 23 24 24 23 22 22 21 21 20 19 19 18 18 18 17 17 17 17 16 16 16 16 16 16 16 16 15 16 16 15
23 22 22 21 21 23 23 23 24 23 21 21 22 21 22 23 23 23 22 22 21 20 20 19 19 18 18 17 17 17 17 17 16 16 16 16 16 16 16 15 15 15 15 15
23 22 23 23 23 24 23 23 23 23 23 22 22 22 22 23 23 22 22 21 21 20 20 19 18 18 18 17 17 17 17 17 16 16 16 16 16 16 15 15 15 15 15 15
23 22 23 22 23 24 23 23 23 23 23 23 23 22 23 23 23 23 22 21 20 20 19 19 18 18 18 17 17 17 17 16 16 16 16 16 16 15 15 15 15 15 15 15
23 22 22 22 23 23 22 23 23 24 24 24 23 23 23 23 23 22 22 21 20 20 19 19 18 18 18 17 17 17 17 16 16 16 16 16 16 15 15 15 15 15 15 15
22 22 22 21 22 20 22 24 24 24 24 24 24 24 23 23 22 22 21 21 20 19 19 18 18 18 17 17 17 17 17 16 16 16 16 16 16 15 15 15 15 15 15 15
23 22 21 21 20 21 23 24 24 23 23 24 24 23 23 22 22 21 20 20 19 19 19 18 18 17 17 17 17 17 17 16 16 16 16 16 15 15 15 15 15 15 14 14
23 22 21 20 20 20 22 24 24 23 22 24 24 23 23 22 21 20 20 19 19 19 18 18 18 17 17 17 17 17 16 16 16 16 16 15 15 15 15 15 15 14 14 14
21 21 21 20 20 21 22 23 23 21 21 23 23 23 22 22 21 20 19 19 18 18 18 18 17 17 17 17 17 17 16 16 16 16 15 15 15 15 15 14 14 14 14 14
21 21 21 21 20 20 22 22 22 22 22 23 22 22 21 20 20 19 19 18 18 17 17 17 17 17 17 17 16 16 16 16 16 15 15 15 15 15 14 14 14 14 14 13
21 21 21 21 20 21 22 22 22 22 22 22 21 21 20 20 19 18 18 17 17 17 17 17 16 16 16 16 16 16 16 16 15 15 15 15 15 14 14 14 14 14 13 13
22 22 21 21 21 21 21 21 21 21 21 21 20 20 19 19 18 18 17 17 16 16 16 16 16 16 16 16 16 16 15 15 15 15 15 14 14 14 14 14 13 13 13 13
20 21 21 20 20 21 21 21 20 20 20 20 20 19 19 18 18 17 17 16 16 16 16 15 15 15 15 15 15 15 15 15 15 14 14 14 14 14 13 13 13 13 13 13
21 21 20 20 21 20 20 20 20 20 20 19 19 18 18 18 17 17 16 16 15 15 15 15 15 15 14 14 14 14 15 14 14 14 13 13 13 13 13 13 12 12 12 12